Welcome to the New NWS' Forecast!
Most changes are behind the scenes, but click here for differences you might notice.
Latest weather observations around

Texarkana, Texarkana Regional-Webb Field (KTXK)

Using English Units (Switch to International System of Units)
Date/ Time (CDT) Wind (mph) Vis. (mi) Weather Sky Cond. Temp (°F) Rel. Humidity Wind Chill (°F) Heat Index (°F) Pressure Precip. (in)
Air Dwpt 6 hour Altimeter (inHg) Sea level (inHg) 1 hr 3 hr 6 hr
Max Min
May 24 21:53 Calm 10 Clear CLR 56 51     84%     29.73 29.72      
May 24 20:53 NNW 3 10 Clear CLR 58 51     78%     29.72 29.71      
May 24 19:53 NW 7 10 Clear CLR 66 49     54%     29.72 29.7      
May 24 18:53 NW 8 10 Partly Cloudy SCT070 68 48     49%     29.71 29.7      
May 24 17:53 NW 13 10 Mostly Cloudy BKN070 68 47     47%     29.71 29.7      
May 24 16:53 WNW 14 10 Mostly Cloudy BKN080 71 47     42%   70 29.72 29.71      
May 24 15:53 W 11 10 Partly Cloudy FEW055 SCT075 69 46     44%     29.73 29.72      
May 24 14:53 NW 15 10 Mostly Cloudy FEW055 BKN075 70 47     44%     29.73 29.72      
May 24 13:53 WNW 15 10 Partly Cloudy SCT050 SCT070 70 49     47%     29.74 29.73      
May 24 12:53 WNW 14 10 Mostly Cloudy FEW048 BKN065 69 49     49%     29.75 29.74      
May 24 11:53 WNW 15 10 Mostly Cloudy BKN042 BKN050 BKN055 65 49     56%     29.76 29.75      
May 24 10:53 NW 17 10 Mostly Clear FEW035 65 51     61%     29.75 29.74      
May 24 09:53 WNW 11 10 Clear CLR 63 51     65%     29.75 29.75      
May 24 08:53 NW 13 10 Clear CLR 59 51     75%     29.76 29.75      
May 24 07:53 WNW 9 10 Clear CLR 57 53     87%     29.75 29.74      
May 24 06:53 WNW 9 10 Clear CLR 55 53     93%     29.74 29.73      
May 24 05:53 NW 8 10 Clear CLR 55 53     93%     29.73 29.72      
May 24 04:53 NW 11 10 Clear CLR 55 55     100%     29.73 29.72      
May 24 03:53 WNW 7 10 Clear CLR 56 56     100%     29.73 29.72      
May 24 02:53 W 7 10 Clear CLR 57 57     100%     29.75 29.73      
May 24 01:53 W 7 10 Clear CLR 58 58     100%     29.78 29.77      
May 24 00:53 W 7 10 Clear CLR 59 59     100%     29.8 29.78     0
May 23 23:53 W 5 10 Cloudy FEW080 SCT090 OVC120 59 59     100%     29.82 29.8 0    
May 23 22:53 NNW 7 7 Light Rain OVC075 59 58     96%     29.82 29.81 0    
May 23 21:53 NW 13 5 Rain and Fog/Mist FEW055 BKN070 OVC080 59 59     100%     29.8 29.79 0 0  
May 23 21:19 NW 17 6 Heavy Rain and Fog/Mist SCT013 BKN041 OVC050 62 61     96%     29.77   0    
May 23 20:53 W 9 10 Light Rain FEW043 BKN090 OVC110 64 62     93%     29.76 29.75 0    
May 23 19:53 WSW 7 10 Cloudy OVC095 64 63     96%     29.75 29.75 0    
May 23 18:53 WNW 7 10 Light Rain FEW055 FEW075 OVC100 65 64     97%     29.75 29.74 0   0
May 23 17:53 S 5 10 Light Rain FEW046 FEW060 OVC100 63 63     100%     29.76 29.75 0    
May 23 17:41 SSW 9 10 Light Rain SCT046 SCT070 OVC100 63 63     100%     29.76   0    
May 23 17:32 SSW 8 10 Light Rain FEW046 BKN085 OVC100 64 64     100%     29.77   0    
May 23 17:01 S 5 4 Thunderstorms and Rain and Fog/Mist SCT039 OVC070 64 64     100%     29.76   0    
May 23 16:53 WSW 6 2.5 Thunderstorms and Rain and Fog/Mist SCT036 BKN043 OVC065 64 63     96%     29.77 29.76 0    
May 23 16:42 NW 8 1.5 Thunderstorms and Heavy Rain and Fog/Mist OVC038 64 62     93%     29.77   0    
May 23 16:23 NNE 7 10 Thunderstorms BKN038 BKN047 BKN055 68 59     73%     29.76        
May 23 15:53 5 10 Partly Cloudy FEW043 SCT085 75 60     60%   75 29.77 29.75   0  
May 23 15:42 6 10 Mostly Cloudy SCT041 BKN085 75 60     60%   75 29.77        
May 23 14:53 WNW 6 10 Mostly Cloudy SCT090 BKN110 74 60     62%   74 29.79 29.78 0    
May 23 13:53 W 9 10 Partly Cloudy SCT110 74 60     62%   74 29.81 29.8      
May 23 12:53 W 9 10 Partly Cloudy SCT110 74 58     57%   74 29.84 29.82      
May 23 11:53 NW 13 10 Partly Cloudy SCT065 72 58     61%   72 29.86 29.85      
May 23 10:53 WNW 9 10 Mostly Cloudy FEW090 BKN110 70 60     71%     29.86 29.85      
May 23 09:53 NW 6 10 Mostly Cloudy BKN090 65 60     84%     29.88 29.87      
May 23 08:53 WNW 3 10 Clear CLR 63 59     87%     29.87 29.86      
May 23 07:53 Calm 10 Clear CLR 60 59     96%     29.88 29.87      
May 23 06:53 N 5 10 Mostly Cloudy BKN120 59 58     96%     29.87 29.86      
May 23 05:53 NW 6 10 Clear CLR 59 58     96%     29.85 29.84      
May 23 04:53 W 5 10 Clear CLR 59 58     96%     29.85 29.84      
May 23 03:53 ESE 5 10 Clear CLR 58 58     100%     29.84 29.83      
May 23 03:30 ENE 5 10 Partly Cloudy SCT023 59 58     96%     29.86        
May 23 02:53 N 7 10 Cloudy BKN026 OVC065 60 58     93%     29.91 29.9      
May 23 02:45 NNW 6 10 Cloudy BKN026 OVC065 60 59     96%     29.91        
May 23 01:53 NNW 5 10 Clear CLR 59 58     96%     29.91 29.9      
May 23 00:53 SE 5 10 Mostly Cloudy BKN040 60 58     93%     29.92 29.91      
May 22 23:53 Calm 10 Cloudy OVC031 61 59     93%     29.94 29.93      
May 22 22:53 ENE 3 10 Cloudy OVC031 61 59     93%     29.94 29.93      
May 22 21:53 ENE 3 10 Cloudy OVC035 61 59     93%     29.95 29.93      
May 22 21:42 Calm 10 Cloudy FEW024 SCT029 OVC035 61 59     93%     29.95        
May 22 20:53 NE 5 10 Cloudy OVC024 61 59     93%     29.96 29.95      
May 22 20:43 NE 3 10 Cloudy BKN025 OVC031 61 59     93%     29.96        
May 22 19:53 ENE 5 10 Cloudy OVC033 61 58     90%     29.96 29.95      
May 22 18:53 Calm 10 Cloudy OVC040 63 60     90%     29.97 29.96      
May 22 17:53 ESE 5 10 Cloudy OVC044 64 60     87%     29.98 29.98      
May 22 16:53 SE 7 10 Cloudy SCT046 OVC065 66 59     78%     29.99 29.98      
May 22 16:11 SE 5 10 Cloudy SCT022 OVC048 65 59     81%     30.01        
May 22 15:53 7 10 Cloudy BKN021 OVC050 66 59     78%     30.01 30.01      
May 22 14:53 7 10 Mostly Cloudy BKN060 67 58     73%     30.03 30.01      
May 22 13:53 SSE 7 10 Cloudy OVC060 65 58     78%     30.06 30.05      
May 22 12:53 SE 6 10 Mostly Cloudy BKN065 BKN085 66 56     70%     30.06 30.05     0
May 22 11:53 E 9 10 Partly Cloudy SCT110 68 56     65%     30.07 30.06      
May 22 09:53 ENE 6 10 Clear CLR 63 61     93%     30.1 30.09 0 0  
May 22 08:53 ENE 6 10 Cloudy OVC110 63 63     100%     30.1 30.09 0    
May 22 07:53 NE 6 9 Cloudy SCT003 BKN100 OVC110 63 63     100%     30.11 30.1 0    
May 22 07:42 NNE 7 10 Cloudy SCT003 SCT095 OVC110 63 63     100%     30.11   0    
May 22 06:53 Calm 8 Light Rain OVC110 62 62     100%     30.11 30.1 0   0
May 22 05:53 3 10 Light Rain OVC100 63 63     100%     30.11 30.09 0    
May 22 04:53 Calm 10 Light Rain FEW055 OVC110 63 63     100%     30.11 30.1 0    
May 22 03:53 Calm 10 Light Rain FEW070 FEW095 OVC110 64 64     100%     30.12 30.11 0 0  
May 22 02:53 SW 8 10 Mostly Cloudy BKN120 65 63     93%     30.14 30.13      
May 22 01:53 Calm 10 Mostly Cloudy BKN110 62 59     90%     30.11 30.1      
May 22 00:53 Calm 10 Clear CLR 63 58     84%     30.11 30.09      
May 21 23:53 ENE 3 10 Clear CLR 64 58     81%     30.11 30.09      
May 21 22:53 ENE 3 10 Clear CLR 65 58     78%     30.11 30.09      
May 21 21:53 Calm 10 Clear CLR 65 60     84%     30.12 30.11      
May 21 20:53 Calm 10 Clear CLR 64 62     93%     30.1 30.09      
May 21 19:53 Calm 10 Clear CLR 66 62     87%     30.09 30.08      
May 21 18:53 NE 3 10 Clear CLR 75 57     54%   75 30.07 30.06      
May 21 17:53 N 6 10 Clear CLR 77 56     48%   77 30.07 30.06      
May 21 16:53 NE 9 10 Clear CLR 77 56     48%   77 30.08 30.07      
May 21 15:53 ENE 5 10 Clear CLR 75 57     54%   75 30.08 30.07      
May 21 14:53 N 6 10 Clear CLR 73 55     53%   73 30.12 30.11      
May 21 13:53 NNE 5 10 Clear CLR 73 57     57%   73 30.13 30.12      
May 21 12:53 NNE 6 10 Clear CLR 70 56     61%     30.14 30.13     0
May 21 11:53 ENE 7 10 Partly Cloudy SCT120 67 58     73%     30.15 30.13      
May 21 10:53 SSW 10 10 Mostly Cloudy BKN085 66 58     75%     30.21 30.19      
May 21 10:41 SW 13 10 Cloudy OVC085 67 55     66%              
May 21 09:53 ENE 9 10 Partly Cloudy SCT090 68 56     65%     30.13 30.12   0  
May 21 09:17 ENE 8 10 Mostly Cloudy BKN095 64 56     75%     30.13        
May 21 08:53 NNE 8 10 Mostly Clear FEW100 FEW120 64 57     78%     30.13 30.11 0    
May 21 07:53 NNW 9 10 Thunderstorms and Rain SCT075 OVC100 64 60     87%     30.13 30.11 0    
May 21 07:46 5 10 Thunderstorms BKN070 OVC100 63 61     93%     30.1        
May 21 07:20 N 5 10 Cloudy OVC070 64 61     90%     30.14        
May 21 06:53 NNE 5 10 Mostly Cloudy BKN070 63 62     97%     30.12 30.1 0   0
May 21 05:53 Calm 10 Light Rain FEW037 SCT070 BKN110 62 61     96%     30.08 30.07 0    
May 21 04:53 6 10 Mostly Cloudy BKN065 BKN110 64 60     87%     30.08 30.07      
May 21 03:53 NNW 6 10 Mostly Cloudy BKN100 65 61     87%     30.07 30.05   0  
May 21 02:53 N 6 10 Mostly Cloudy BKN060 66 60     81%     30.05 30.03 0    
May 21 01:53 N 7 10 Light Rain BKN060 BKN095 67 62     84%     30.05 30.03 0    
May 21 00:53 NNW 9 10 Mostly Cloudy FEW021 BKN040 BKN110 69 66     90%     30.04 30.02     0
May 21 00:17 NNW 7 10 Cloudy SCT014 BKN035 OVC045 71 69     93%   72 30.02        
May 21 00:06 NNW 7 10 Cloudy BKN013 BKN035 OVC070 71 69     93%   72 30.02        
May 20 23:53 NW 7 10 Cloudy SCT013 BKN030 OVC075 71 69     93%   72 30.02 30.01 0    
May 20 22:53 NNW 8 10 Cloudy BKN047 OVC055 72 70     93%   73 30 29.99      
May 20 21:53 NW 7 10 Cloudy BKN048 OVC070 74 70     87%   75 29.99 29.98 0 0  
May 20 20:53 NNW 6 10 Mostly Cloudy BKN032 BKN046 75 70     84%   76 29.95 29.94      
May 20 19:53 NE 3 10 Cloudy BKN038 OVC060 76 72     88%   77 29.93 29.92      
May 20 18:53 WSW 6 10 Cloudy BKN040 OVC060 81 68     65%   84 29.92 29.91      
May 20 17:53 W 7 10 Mostly Clear FEW045 82 67     60%   85 29.91 29.89      
May 20 16:53 SW 5 10 Mostly Cloudy BKN036 81 68     65%   84 29.89 29.87      
May 20 15:53 SSW 8 10 Partly Cloudy SCT075 80 66     62%   82 29.9 29.88      
May 20 14:53 S 8 10 Clear CLR 79 67     67%   80 29.93 29.91      
May 20 13:53 7 10 Clear CLR 78 67     69%   79 29.92 29.91      
May 20 12:53 NW 7 10 Clear CLR 72 69     91%   73 29.93 29.91 0   0
May 20 11:53 S 10 10 Light Rain BKN045 OVC050 67 67     100%     29.97 29.96 0    
May 20 10:53 E 6 10 Clear CLR 67 67     100%     29.92 29.91      
May 20 09:53 3 10 Partly Cloudy SCT005 66        %     29.94 29.93 0 0  
May 20 08:53 SE 8 8 Light Rain FEW004 SCT090 BKN120 66 66     100%     29.94 29.93 0    
May 20 08:42 ESE 3 10 Light Rain FEW004 SCT075 BKN110 65 65     100%     29.93   0    
May 20 07:53 SSE 9 6 Rain and Fog/Mist BKN110 66 66     100%     29.95 29.94 0    
May 20 07:44 SE 7 6 Rain and Fog/Mist BKN110 65 65     100%     29.94   0    
May 20 07:29 5 7 Thunderstorms and Rain BKN100 BKN120 66 66     100%     29.92   0    
May 20 06:53 S 6 8 Light Rain FEW065 BKN085 OVC100 66 66     100%     29.91 29.9 0   0
May 20 06:49 SSE 3 7 Light Rain FEW043 SCT065 OVC090 66 66     100%     29.91   0    
May 20 06:31 WSW 6 5 Thunderstorms and Rain and Fog/Mist FEW017 BKN039 OVC065 66 66     100%     29.91   0    
May 20 06:18   2.5 Thunderstorms and Heavy Rain and Fog/Mist FEW009 BKN031 OVC070 66 66     100%     29.9   0    
May 20 06:15 W 13 2.5 Heavy Rain and Fog/Mist SCT016 BKN028 OVC070 67 66     97%     29.91   0    
May 20 06:08   5 Rain and Fog/Mist SCT016 SCT026 BKN035 68 66     93%     29.9   0    
May 20 05:53 S 9 10 Mostly Cloudy FEW016 BKN070 BKN100 74 73     97%   76 29.86 29.85      
May 20 04:53 S 11 10 Mostly Clear FEW080 74 73     97%   76 29.85 29.83      
May 20 03:53 S 8 10 Mostly Clear FEW021 75 73     94%   77 29.86 29.84      
May 20 02:53 SSE 13 10 Clear CLR 75 73     94%   77 29.83 29.82      
May 20 01:53 S 11 10 Clear CLR 75 73     94%   77 29.84 29.83      
May 20 00:53 SE 8 10 Clear CLR 75 73     94%   77 29.85 29.83      
May 19 23:53 SSE 8 10 Clear CLR 76 73     91%   77 29.85 29.84      
May 19 22:53 SE 8 10 Mostly Clear FEW095 77 73     88%   79 29.86 29.84      
May 19 21:53 SE 8 10 Clear CLR 77 72     84%   78 29.84 29.82      
May 19 20:53 SE 7 10 Clear   78 73     85%   80 29.81 29.79      
May 19 19:53 SE 10 10 Clear CLR 80 73     79%   84 29.78 29.76      
May 19 18:53 S 7 10 Clear CLR 84 72     67%   90 29.79 29.78      
May 19 17:53 SSE 10 10 Clear CLR 86 72     63%   92 29.8 29.78      
May 19 16:53 S 10 10 Clear CLR 86 71     61%   92 29.82 29.81      
May 19 14:53 SSE 14 10 Mostly Clear FEW044 87 72     61%   94 29.85 29.84      
May 19 13:53 S 14 10 Partly Cloudy FEW040 SCT049 SCT070 86 71     61%   92 29.88 29.86      
May 19 12:53 S 11 10 Partly Cloudy SCT030 SCT038 85 73     68%   92 29.89 29.87      
May 19 11:53 S 14 10 Partly Cloudy FEW024 SCT035 SCT043 82 72     72%   87 29.91 29.89      
May 19 11:35 SSE 14 10 Mostly Clear FEW021 83 74     74%   89 29.91        
May 19 10:53 S 14 10 Cloudy FEW016 BKN028 OVC036 78 73     85%   80 29.92 29.9      
May 19 09:53 S 11 10 Cloudy BKN016 OVC022 76 72     88%   77 29.91 29.9      
May 19 09:04 S 11 10 Cloudy BKN015 OVC020 75 72     90%   76 29.9        
May 19 08:53 SSE 8 10 Cloudy OVC013 75 72     90%   76 29.91 29.89      
May 19 07:53 ESE 5 10 Mostly Cloudy BKN010 BKN015 73 72     96%   75 29.91 29.89      
May 19 07:17 ESE 3 10 Partly Cloudy SCT012 71 71     100%   73 29.9        
May 19 06:53 ESE 3 9 Mostly Cloudy BKN013 70 70     100%     29.89 29.87      
May 19 06:34 E 5 10 Mostly Cloudy BKN013 70 70     100%     29.89        
May 19 05:53 ESE 3 10 Clear CLR 71 70     96%   72 29.88 29.87      
May 19 04:53 SSW 9 10 Clear CLR 73 70     90%   74 29.87 29.86      
May 19 03:53 SSE 14 10 Clear   73 70     90%   74 29.84 29.82      
May 19 02:53 S 11 10 Clear CLR 74 69     85%   75 29.87 29.85      
May 19 01:53 S 10 10 Clear CLR 75 68     79%   76 29.89 29.87      
May 19 00:53 S 9 10 Partly Cloudy SCT085 76 68     76%   77 29.89 29.87      
May 18 23:53 S 9 10 Clear CLR 76 68     76%   77 29.88 29.86      
May 18 22:53 SSE 7 10 Clear CLR 76 71     85%   77 29.87 29.86      
May 18 21:53 SSE 7 10 Clear CLR 78 71     79%   79 29.85 29.83      
May 18 20:53 SSE 9 10 Mostly Clear FEW095 79 72     79%   82 29.82 29.8      
May 18 19:53 SE 7 10 Partly Cloudy FEW047 SCT065 SCT090 80 72     76%   84 29.78 29.77      
May 18 18:53 SE 10 10 Clear CLR 83 73     72%   89 29.79 29.78      
May 18 17:53 S 11 10 Clear CLR 84 72     67%   90 29.8 29.78      
May 18 16:53 S 9 10 Mostly Cloudy FEW036 FEW044 BKN060 83 72     70%   88 29.83 29.81      
May 18 15:53 SSW 16 10 Partly Cloudy SCT034 85 72     65%   91 29.84 29.83      
May 18 14:53 S 16 10 Mostly Clear FEW033 85 72     65%   91 29.85 29.84      
May 18 13:53 S 14 10 Partly Cloudy FEW030 SCT036 SCT065 84 72     67%   90 29.87 29.85      
May 18 12:53 S 13 10 Mostly Cloudy FEW030 BKN038 83 72     70%   88 29.88 29.87      
May 18 12:01 S 14 10 Mostly Cloudy FEW022 SCT028 BKN036 83 72     70%   88 29.9        
May 18 11:53 SSE 17 10 Mostly Cloudy BKN024 BKN038 83 73     72%   89 29.9 29.88      
May 18 11:31 SSE 10 10 Mostly Cloudy SCT022 SCT028 BKN033 80 73     79%   84 29.9        
May 18 10:53 SSE 14 10 Mostly Cloudy SCT020 BKN026 BKN034 80 73     79%   84 29.9 29.88      
May 18 09:53 S 10 10 Cloudy OVC017 76 72     88%   77 29.9 29.89      
May 18 09:29 SSE 9 10 Cloudy BKN017 OVC023 75 72     90%   76 29.9        
May 18 08:53 S 8 10 Cloudy OVC014 75 72     90%   76 29.89 29.88      
May 18 07:53 SSE 10 9 Mostly Cloudy BKN011 BKN029 73 71     94%   74 29.88 29.86      
May 18 06:53 SSE 7 9 Mostly Cloudy BKN020 71 71     100%   73 29.86 29.85      
May 18 05:53 SSE 8 10 Mostly Cloudy FEW017 SCT023 BKN047 71 70     96%   72 29.85 29.83      
May 18 05:04 S 9 10 Mostly Cloudy FEW018 BKN035 BKN042 72 70     93%   73 29.85        
May 18 04:53 SSE 9 10 Cloudy BKN018 BKN026 OVC038 72 70     93%   73 29.85 29.83      
May 18 04:06 S 6 10 Cloudy BKN020 OVC035 73 70     90%   74 29.85        
May 18 03:53 S 7 10 Cloudy FEW019 OVC035 73 70     90%   74 29.84 29.83      
May 18 02:53 SSE 11 10 Cloudy OVC035 73 69     87%   74 29.84 29.82      
May 18 01:53 S 10 10 Cloudy BKN048 OVC065 74 69     85%   75 29.83 29.82      
May 18 00:53 S 9 10 Cloudy OVC055 74 70     87%   75 29.84 29.82     0
May 17 23:53 S 10 10 Clear   74 70     87%   75 29.83 29.81      
May 17 22:53 S 7 10 Mostly Cloudy BKN048 74 71     91%   75 29.82 29.81      
May 17 21:53 S 8 10 Partly Cloudy SCT047 SCT070 74 71     91%   75 29.82 29.8   0  
May 17 20:53 S 8 10 Mostly Cloudy SCT044 BKN060 74 72     94%   75 29.8 29.78 0    
May 17 19:53 SSE 6 10 Cloudy OVC044 74 72     94%   75 29.79 29.78 0    
May 17 18:53 S 7 10 Cloudy OVC050 75 71     88%   76 29.79 29.77      
May 17 17:53 SSW 5 10 Cloudy BKN038 OVC045 76 71     85%   77 29.79 29.77      
May 17 16:53 SSW 9 10 Cloudy FEW033 OVC048 77 70     79%   78 29.78 29.76      
May 17 15:53 S 14 10 Mostly Cloudy BKN044 79 70     74%   82 29.78 29.76      
May 17 14:53 S 16 10 Cloudy FEW048 BKN060 OVC070 78 70     76%   79 29.78 29.77      
May 17 13:53 S 10 10 Cloudy OVC044 77 70     79%   78 29.8 29.78      
May 17 12:53 SSW 13 10 Cloudy SCT031 OVC043 76 70     82%   77 29.81 29.8     0
May 17 11:53 SSW 13 10 Cloudy SCT028 BKN033 OVC055 77 69     77%   78 29.82 29.8      
May 17 10:53 S 11 10 Cloudy SCT027 OVC055 75 69     82%   76 29.82 29.8      
May 17 09:53 S 16 10 Cloudy SCT021 BKN070 OVC085 74 68     82%   75 29.82 29.8   0  
May 17 08:53 S 14 10 Mostly Cloudy BKN080 73 68     84%   74 29.82 29.8      
May 17 07:53 S 13 10 Partly Cloudy SCT090 71 67     87%   72 29.84 29.82 0    
May 17 06:53 S 5 10 Mostly Cloudy FEW042 BKN085 69 66     90%     29.86 29.84     0
May 17 05:53 S 5 10 Cloudy FEW030 FEW046 OVC065 69 65     87%     29.85 29.84 0    
May 17 05:39 SW 6 10 Cloudy SCT022 BKN030 OVC055 70 65     84%     29.86        
May 17 04:53 WSW 8 10 Cloudy BKN023 OVC028 70 65     84%     29.82 29.8      
May 17 04:26 S 9 10 Cloudy BKN024 OVC033 69 65     87%     29.76        
May 17 04:07 S 10 10 Mostly Cloudy SCT026 BKN033 69 64     84%     29.74        
May 17 03:53 SSE 14 10 Mostly Cloudy BKN026 69 64     84%     29.73 29.72      
May 17 01:53 S 11 10 Clear CLR 70 62     76%     29.76 29.74      
May 17 00:53 S 11 10 Clear CLR 71 62     73%   71 29.77 29.76      
May 16 23:53 S 10 10 Clear CLR 72 62     71%   72 29.78 29.77      
May 16 22:53 SSE 10 10 Clear CLR 73 63     71%   73 29.8 29.78      
May 16 21:53 SSE 10 10 Clear CLR 74 64     71%   74 29.79 29.78      
May 16 20:53 SSE 9 10 Clear CLR 75 64     69%   75 29.78 29.77      
May 16 19:53 SSE 8 10 Clear CLR 78 64     62%   79 29.79 29.78      
May 16 18:53 SSE 11 10 Clear CLR 81 64     56%   83 29.8 29.79      
May 16 17:53 SSE 11 10 Mostly Clear FEW050 83 64     53%   84 29.82 29.8      
May 16 16:53 S 13 10 Mostly Clear FEW055 83 61     48%   83 29.84 29.82      
May 16 15:53 S 14 10 Clear CLR 83 61     48%   83 29.85 29.84      
May 16 14:53 S 10 10 Clear CLR 83 62     49%   84 29.88 29.86      
May 16 13:53 S 16 10 Clear CLR 83 62     49%   84 29.9 29.89      
May 16 12:53 S 14 10 Clear CLR 81 60     49%   82 29.92 29.91      
May 16 11:53 S 15 10 Clear CLR 81 60     49%   82 29.94 29.92      
May 16 10:53 SSW 16 10 Clear CLR 77 61     58%   77 29.95 29.94      
May 16 09:53 S 11 10 Clear CLR 73 63     71%   73 29.96 29.94      
May 16 08:53 SSW 9 10 Clear CLR 70 65     84%     29.96 29.95      
May 16 07:53 S 8 10 Clear CLR 67 64     90%     29.95 29.93      
May 16 06:53 S 7 10 Clear CLR 63 62     97%     29.94 29.92      
May 16 05:53 S 6 10 Clear CLR 64 61     90%     29.92 29.91      
May 16 04:53 S 9 10 Clear CLR 65 62     90%     29.91 29.89      
May 16 03:53 S 8 10 Clear CLR 66 62     87%     29.9 29.89      
May 16 02:53 S 9 10 Clear CLR 67 61     81%     29.91 29.89      
May 16 01:53 S 7 10 Clear CLR 69 60     73%     29.91 29.89      
May 16 00:53 S 7 10 Clear CLR 69 60     73%     29.92 29.9      
May 15 23:53 S 7 10 Clear CLR 70 60     71%     29.91 29.9      
May 15 22:53 S 8 10 Clear CLR 72 61     68%   72 29.92 29.9      
May 15 21:53 SSE 6 10 Clear CLR 70 61     73%     29.91 29.9      
May 15 20:53 SE 6 10 Clear CLR 72 61     68%   72 29.91 29.9      
May 15 19:53 SSE 3 10 Clear CLR 76 63     64%   76 29.91 29.89      
May 15 18:53 S 8 10 Clear   81 61     51%   82 29.91 29.89      
May 15 17:53 S 11 10 Clear CLR 82 60     47%   82 29.91 29.89      
May 15 16:53 SE 9 10 Clear CLR 82 63     53%   83 29.91 29.9      
May 15 15:53 SSE 11 10 Mostly Clear FEW048 83 63     51%   84 29.93 29.91      
May 15 14:53 S 10 10 Clear CLR 82 61     49%   83 29.95 29.93      
May 15 13:53 S 9 10 Mostly Clear FEW044 82 63     53%   83 29.97 29.96      
May 15 12:53 SE 9 10 Mostly Cloudy BKN042 81 65     58%   83 29.98 29.97      
May 15 11:53 Calm 10 Clear CLR 79 64     60%   79 29.99 29.98      
May 15 10:53 SSW 8 10 Clear CLR 78 66     67%   79 30 29.99      
May 15 09:53 SW 7 10 Clear CLR 75 66     74%   76 30.01 29.99      
May 15 08:53 SSW 7 10 Clear CLR 72 64     76%   72 30 29.98      
May 15 07:53 SSW 8 10 Clear CLR 68 61     78%     29.98 29.97      
May 15 06:53 SSE 6 10 Clear CLR 63 59     87%     29.96 29.95      
May 15 05:53 Calm 10 Clear CLR 63 59     87%     29.94 29.93      
May 15 04:53 Calm 10 Clear CLR 64 59     84%     29.94 29.93      
May 15 03:53 SW 3 10 Clear CLR 65 58     78%     29.94 29.93      
May 15 02:53 S 9 10 Clear CLR 67 57     71%     29.94 29.93      
May 15 01:53 S 6 10 Clear CLR 65 58     78%     29.94 29.93      
May 15 00:53 Calm 10 Clear CLR 67 57     71%     29.95 29.94      
May 14 23:53 SE 6 10 Clear CLR 66 56     70%     29.94 29.93      
May 14 22:53 SE 6 10 Clear CLR 69 56     63%     29.95 29.93      
May 14 21:53 SE 6 10 Clear CLR 68 58     70%     29.93 29.92      
May 14 20:53 SE 5 10 Clear CLR 71 60     68%   71 29.92 29.91      
May 14 19:53 SE 5 10 Clear CLR 73 61     66%   73 29.91 29.9      
May 14 18:53 Calm 10 Clear CLR 78 58     50%   78 29.91 29.9      
May 14 17:53 Calm 10 Clear CLR 79 56     45%   79 29.92 29.91      
May 14 16:53 5 10 Clear CLR 80 57     45%   80 29.93 29.91      
May 14 15:53 W 5 10 Clear CLR 80 56     44%   80 29.94 29.93      
May 14 14:53 6 10 Clear CLR 79 56     45%   79 29.96 29.94      
May 14 14:06   10 Clear CLR 79 55     44%   79 29.98        
May 14 13:53 Calm 10 Clear CLR 77 55     47%   77 29.98 29.96      
May 14 12:53 E 6 10 Clear CLR 77 57     50%   77 30 29.98      
May 14 11:53 5 10 Clear CLR 75 57     54%   75 30.01 30      
May 14 10:53 3 10 Clear CLR 73 56     55%   73 30.01 30      
May 14 09:53 5 10 Clear CLR 71 59     66%   71 30.01 30      
May 14 08:53 SE 5 10 Clear CLR 68 59     73%     30.02 30.01      
May 14 07:53 Calm 10 Clear CLR 63 59     87%     30.01 30      
May 14 06:53 Calm 10 Clear CLR 54 54     100%     30 29.99      
May 14 05:53 Calm 10 Clear CLR 55 54     96%     29.98 29.97      
May 14 04:53 Calm 10 Clear CLR 56 54     93%     29.97 29.96      
May 14 03:53 Calm 10 Clear CLR 58 54     87%     29.96 29.94      
May 14 02:53 ESE 6 10 Clear CLR 60 54     80%     29.94 29.93      
May 14 01:53 ESE 5 10 Clear CLR 61 55     81%     29.94 29.92      
May 14 00:53 SE 5 10 Clear CLR 60 56     86%     29.94 29.93      
May 13 23:53 Calm 10 Clear CLR 61 56     83%     29.93 29.92      
May 13 22:53 Calm 10 Clear CLR 63 56     78%     29.93 29.92      
May 13 21:53 E 3 10 Clear CLR 65 56     73%     29.92 29.91      
May 13 20:53 SE 3 10 Clear CLR 64 58     81%     29.91 29.9      
May 13 19:53 Calm 10 Clear CLR 70 58     66%     29.91 29.9      
May 13 18:53 3 10 Clear CLR 74 55     52%   73 29.91 29.89      
May 13 17:53 ENE 6 10 Clear CLR 75 54     48%   74 29.91 29.9